Time,TemperatureF,DewpointF,PressureIn,WindDirection,WindDirectionDegrees,WindSpeedMPH,WindSpeedGustMPH,Humidity,HourlyPrecipIn,Conditions,Clouds,dailyrainin,SoftwareType,DateUTC
2013-04-15 00:02:00,69.9,62.4,29.99,NNW,340,0.0,7.0,77,0.00,,,0.00,Wunderground v.1.15,2013-04-15 04:02:00,
2013-04-15 00:03:00,69.9,62.0,29.99,NNW,342,0.0,7.0,76,0.00,,,0.00,Wunderground v.1.15,2013-04-15 04:03:00,
2013-04-15 00:04:00,69.9,62.4,29.99,NNW,343,0.0,7.0,77,0.00,,,0.00,Wunderground v.1.15,2013-04-15 04:04:00,
2013-04-15 00:10:00,69.9,62.0,29.99,NW,306,0.0,0.0,76,0.00,,,0.00,Wunderground v.1.15,2013-04-15 04:10:00,
2013-04-15 00:15:00,69.9,62.0,29.98,NW,306,0.0,0.0,76,0.00,,,0.00,Wunderground v.1.15,2013-04-15 04:15:00,
2013-04-15 00:19:00,69.8,61.9,29.98,NNW,338,0.0,3.0,76,0.00,,,0.00,Wunderground v.1.15,2013-04-15 04:19:00,
2013-04-15 00:25:00,69.8,61.9,29.98,NNW,348,0.0,2.0,76,0.00,,,0.00,Wunderground v.1.15,2013-04-15 04:25:00,
2013-04-15 00:30:00,69.7,61.8,29.98,North,355,0.0,3.0,76,0.00,,,0.00,Wunderground v.1.15,2013-04-15 04:30:00,
2013-04-15 00:35:00,69.7,61.8,29.98,NNE,13,0.0,3.0,76,0.00,,,0.00,Wunderground v.1.15,2013-04-15 04:35:00,
2013-04-15 00:41:00,69.9,62.0,29.98,North,360,0.0,3.0,76,0.00,,,0.00,Wunderground v.1.15,2013-04-15 04:41:00,
2013-04-15 00:46:00,69.9,62.0,29.98,North,360,0.0,3.0,76,0.00,,,0.00,Wunderground v.1.15,2013-04-15 04:46:00,
2013-04-15 00:52:00,70.0,62.1,29.98,North,360,0.0,0.0,76,0.00,,,0.00,Wunderground v.1.15,2013-04-15 04:52:00,
2013-04-15 00:57:00,69.9,62.4,29.98,North,360,0.0,0.0,77,0.00,,,0.00,Wunderground v.1.15,2013-04-15 04:57:00,
2013-04-15 01:03:00,69.9,62.4,29.98,North,360,0.0,5.0,77,0.00,,,0.00,Wunderground v.1.15,2013-04-15 05:03:00,
2013-04-15 01:08:00,69.8,62.3,29.98,North,360,0.0,5.0,77,0.00,,,0.00,Wunderground v.1.15,2013-04-15 05:08:00,
2013-04-15 01:13:00,69.8,62.3,29.98,North,360,0.0,0.0,77,0.00,,,0.00,Wunderground v.1.15,2013-04-15 05:13:00,
2013-04-15 01:19:00,69.7,62.5,29.98,North,360,0.0,0.0,78,0.00,,,0.00,Wunderground v.1.15,2013-04-15 05:19:00,
2013-04-15 01:24:00,69.6,62.4,29.98,North,360,0.0,0.0,78,0.00,,,0.00,Wunderground v.1.15,2013-04-15 05:24:00,
2013-04-15 01:29:00,69.6,62.4,29.98,North,360,0.0,0.0,78,0.00,,,0.00,Wunderground v.1.15,2013-04-15 05:29:00,
2013-04-15 01:35:00,69.5,62.7,29.98,North,360,0.0,0.0,79,0.00,,,0.00,Wunderground v.1.15,2013-04-15 05:35:00,
2013-04-15 01:40:00,69.4,63.0,29.98,North,360,0.0,0.0,80,0.00,,,0.00,Wunderground v.1.15,2013-04-15 05:40:00,
2013-04-15 01:45:00,69.3,62.9,29.98,North,360,0.0,0.0,80,0.00,,,0.00,Wunderground v.1.15,2013-04-15 05:45:00,
2013-04-15 01:50:00,69.1,63.0,29.98,North,360,0.0,0.0,81,0.00,,,0.00,Wunderground v.1.15,2013-04-15 05:50:00,
2013-04-15 01:55:00,69.0,62.9,29.98,North,360,0.0,0.0,81,0.00,,,0.00,Wunderground v.1.15,2013-04-15 05:55:00,
2013-04-15 02:01:00,68.8,63.1,29.98,North,360,0.0,0.0,82,0.00,,,0.00,Wunderground v.1.15,2013-04-15 06:01:00,
2013-04-15 02:06:00,68.7,63.0,29.98,North,360,0.0,0.0,82,0.00,,,0.00,Wunderground v.1.15,2013-04-15 06:06:00,
2013-04-15 02:12:00,68.5,63.1,29.97,North,360,0.0,0.0,83,0.00,,,0.00,Wunderground v.1.15,2013-04-15 06:12:00,
2013-04-15 02:17:00,68.4,63.0,29.98,North,360,0.0,0.0,83,0.00,,,0.00,Wunderground v.1.15,2013-04-15 06:17:00,
2013-04-15 02:22:00,68.3,63.3,29.98,North,360,0.0,0.0,84,0.00,,,0.00,Wunderground v.1.15,2013-04-15 06:22:00,
2013-04-15 02:27:00,68.3,63.3,29.98,North,360,0.0,0.0,84,0.00,,,0.00,Wunderground v.1.15,2013-04-15 06:27:00,
2013-04-15 02:32:00,68.1,63.1,29.98,North,360,0.0,0.0,84,0.00,,,0.00,Wunderground v.1.15,2013-04-15 06:32:00,
2013-04-15 02:38:00,68.0,63.0,29.97,North,360,0.0,0.0,84,0.00,,,0.00,Wunderground v.1.15,2013-04-15 06:38:00,
2013-04-15 02:44:00,67.9,62.9,29.97,North,360,0.0,0.0,84,0.00,,,0.00,Wunderground v.1.15,2013-04-15 06:44:00,
2013-04-15 02:49:00,67.9,63.2,29.97,North,360,0.0,0.0,85,0.00,,,0.00,Wunderground v.1.15,2013-04-15 06:49:00,
2013-04-15 02:54:00,67.9,63.2,29.97,North,360,0.0,0.0,85,0.00,,,0.00,Wunderground v.1.15,2013-04-15 06:54:00,
2013-04-15 02:59:00,67.8,63.1,29.97,North,360,0.0,0.0,85,0.00,,,0.00,Wunderground v.1.15,2013-04-15 06:59:00,
2013-04-15 03:04:00,67.7,63.0,29.97,North,360,0.0,0.0,85,0.00,,,0.00,Wunderground v.1.15,2013-04-15 07:04:00,
2013-04-15 03:41:00,67.9,63.2,29.97,North,360,0.0,0.0,85,0.00,,,0.00,Wunderground v.1.15,2013-04-15 07:41:00,
2013-04-15 03:42:00,67.9,63.2,29.97,North,360,0.0,0.0,85,0.00,,,0.00,Wunderground v.1.15,2013-04-15 07:42:00,
2013-04-15 03:43:00,67.9,63.2,29.97,North,360,0.0,0.0,85,0.00,,,0.00,Wunderground v.1.15,2013-04-15 07:43:00,
2013-04-15 03:45:00,68.0,63.3,29.97,North,360,0.0,0.0,85,0.00,,,0.00,Wunderground v.1.15,2013-04-15 07:45:00,
2013-04-15 03:48:00,68.0,63.0,29.97,North,360,0.0,0.0,84,0.00,,,0.00,Wunderground v.1.15,2013-04-15 07:48:00,
2013-04-15 03:49:00,68.0,63.3,29.97,North,360,0.0,0.0,85,0.00,,,0.00,Wunderground v.1.15,2013-04-15 07:49:00,
2013-04-15 03:50:00,68.1,63.4,29.97,North,360,0.0,0.0,85,0.00,,,0.00,Wunderground v.1.15,2013-04-15 07:50:00,
2013-04-15 03:55:00,68.2,63.2,29.97,North,360,0.0,0.0,84,0.00,,,0.00,Wunderground v.1.15,2013-04-15 07:55:00,
2013-04-15 03:57:00,68.2,63.5,29.97,North,360,0.0,0.0,85,0.00,,,0.00,Wunderground v.1.15,2013-04-15 07:57:00,
2013-04-15 04:02:00,68.3,63.3,29.97,North,360,0.0,0.0,84,0.00,,,0.00,Wunderground v.1.15,2013-04-15 08:02:00,
2013-04-15 04:08:00,68.3,63.3,29.97,North,360,0.0,0.0,84,0.00,,,0.00,Wunderground v.1.15,2013-04-15 08:08:00,
2013-04-15 04:13:00,68.3,63.3,29.97,North,360,0.0,0.0,84,0.00,,,0.00,Wunderground v.1.15,2013-04-15 08:13:00,
2013-04-15 04:18:00,68.3,63.3,29.98,North,360,0.0,0.0,84,0.00,,,0.00,Wunderground v.1.15,2013-04-15 08:18:00,
2013-04-15 04:23:00,68.4,63.7,29.98,North,360,0.0,0.0,85,0.00,,,0.00,Wunderground v.1.15,2013-04-15 08:23:00,
2013-04-15 04:29:00,68.4,63.7,29.98,North,360,0.0,0.0,85,0.00,,,0.00,Wunderground v.1.15,2013-04-15 08:29:00,
2013-04-15 04:34:00,68.5,63.8,29.98,North,360,0.0,0.0,85,0.00,,,0.00,Wunderground v.1.15,2013-04-15 08:34:00,
2013-04-15 04:40:00,68.5,63.8,29.98,North,360,0.0,0.0,85,0.00,,,0.00,Wunderground v.1.15,2013-04-15 08:40:00,
2013-04-15 04:41:00,68.5,63.8,29.98,North,360,0.0,0.0,85,0.00,,,0.00,Wunderground v.1.15,2013-04-15 08:41:00,
2013-04-15 04:42:00,68.5,63.8,29.98,North,360,0.0,0.0,85,0.00,,,0.00,Wunderground v.1.15,2013-04-15 08:42:00,
2013-04-15 04:48:00,68.5,63.8,29.98,North,360,0.0,0.0,85,0.00,,,0.00,Wunderground v.1.15,2013-04-15 08:48:00,
2013-04-15 04:50:00,68.5,63.5,29.98,North,360,0.0,0.0,84,0.00,,,0.00,Wunderground v.1.15,2013-04-15 08:50:00,
2013-04-15 04:55:00,68.5,63.5,29.97,North,360,0.0,0.0,84,0.00,,,0.00,Wunderground v.1.15,2013-04-15 08:55:00,
2013-04-15 05:00:00,68.5,63.5,29.96,North,360,0.0,0.0,84,0.00,,,0.00,Wunderground v.1.15,2013-04-15 09:00:00,
2013-04-15 05:06:00,68.5,63.5,29.96,North,360,0.0,0.0,84,0.00,,,0.00,Wunderground v.1.15,2013-04-15 09:06:00,
2013-04-15 05:11:00,68.5,63.5,29.96,North,360,0.0,0.0,84,0.00,,,0.00,Wunderground v.1.15,2013-04-15 09:11:00,
2013-04-15 05:17:00,68.4,63.7,29.96,North,360,0.0,0.0,85,0.00,,,0.00,Wunderground v.1.15,2013-04-15 09:17:00,
2013-04-15 05:23:00,68.4,63.7,29.96,North,360,0.0,0.0,85,0.00,,,0.00,Wunderground v.1.15,2013-04-15 09:23:00,
2013-04-15 05:28:00,68.3,63.6,29.96,North,360,0.0,0.0,85,0.00,,,0.00,Wunderground v.1.15,2013-04-15 09:28:00,
2013-04-15 05:33:00,68.2,63.5,29.96,North,360,0.0,0.0,85,0.00,,,0.00,Wunderground v.1.15,2013-04-15 09:33:00,
2013-04-15 05:39:00,68.1,63.4,29.96,North,360,0.0,0.0,85,0.00,,,0.00,Wunderground v.1.15,2013-04-15 09:39:00,
2013-04-15 05:44:00,68.1,63.8,29.96,North,360,0.0,0.0,86,0.00,,,0.00,Wunderground v.1.15,2013-04-15 09:44:00,
2013-04-15 05:49:00,68.0,63.7,29.96,North,360,0.0,0.0,86,0.00,,,0.00,Wunderground v.1.15,2013-04-15 09:49:00,
2013-04-15 05:54:00,67.9,63.6,29.96,North,360,0.0,0.0,86,0.00,,,0.00,Wunderground v.1.15,2013-04-15 09:54:00,
2013-04-15 06:00:00,67.8,63.8,29.96,North,360,0.0,0.0,87,0.00,,,0.00,Wunderground v.1.15,2013-04-15 10:00:00,
2013-04-15 06:05:00,67.8,63.5,29.97,North,360,0.0,0.0,86,0.00,,,0.00,Wunderground v.1.15,2013-04-15 10:05:00,
2013-04-15 06:13:00,67.7,63.4,29.96,North,360,0.0,0.0,86,0.00,,,0.00,Wunderground v.1.15,2013-04-15 10:13:00,
2013-04-15 06:18:00,67.7,63.4,29.96,North,360,0.0,0.0,86,0.00,,,0.00,Wunderground v.1.15,2013-04-15 10:18:00,
2013-04-15 06:23:00,67.9,63.6,29.97,North,360,0.0,0.0,86,0.00,,,0.00,Wunderground v.1.15,2013-04-15 10:23:00,
2013-04-15 06:29:00,68.0,63.7,29.97,North,360,0.0,0.0,86,0.00,,,0.00,Wunderground v.1.15,2013-04-15 10:29:00,
2013-04-15 06:34:00,68.0,63.7,29.96,North,360,0.0,0.0,86,0.00,,,0.00,Wunderground v.1.15,2013-04-15 10:34:00,
2013-04-15 06:39:00,68.0,63.3,29.96,North,360,0.0,0.0,85,0.00,,,0.00,Wunderground v.1.15,2013-04-15 10:39:00,
2013-04-15 06:44:00,68.2,63.5,29.96,North,360,0.0,0.0,85,0.00,,,0.00,Wunderground v.1.15,2013-04-15 10:44:00,
2013-04-15 06:49:00,68.4,63.7,29.96,North,360,0.0,2.0,85,0.00,,,0.00,Wunderground v.1.15,2013-04-15 10:49:00,
2013-04-15 06:55:00,68.7,64.0,29.95,South,183,1.0,4.0,85,0.00,,,0.00,Wunderground v.1.15,2013-04-15 10:55:00,
2013-04-15 07:00:00,69.1,64.7,29.95,South,180,2.0,2.0,86,0.00,,,0.00,Wunderground v.1.15,2013-04-15 11:00:00,
2013-04-15 07:05:00,69.5,64.8,29.95,SSE,167,2.0,6.0,85,0.00,,,0.00,Wunderground v.1.15,2013-04-15 11:05:00,
2013-04-15 07:12:00,69.8,64.7,29.97,South,174,1.0,2.0,84,0.00,,,0.00,Wunderground v.1.15,2013-04-15 11:12:00,
2013-04-15 07:17:00,69.9,64.8,29.97,South,173,0.0,2.0,84,0.00,,,0.00,Wunderground v.1.15,2013-04-15 11:17:00,
2013-04-15 07:22:00,70.0,64.9,29.97,South,173,0.0,0.0,84,0.00,,,0.00,Wunderground v.1.15,2013-04-15 11:22:00,
2013-04-15 07:28:00,70.1,65.0,29.96,South,174,0.0,1.0,84,0.00,,,0.00,Wunderground v.1.15,2013-04-15 11:28:00,
2013-04-15 07:33:00,70.2,65.1,29.97,South,174,0.0,0.0,84,0.00,,,0.00,Wunderground v.1.15,2013-04-15 11:33:00,
2013-04-15 07:39:00,70.3,65.2,29.98,South,174,0.0,0.0,84,0.00,,,0.00,Wunderground v.1.15,2013-04-15 11:39:00,
2013-04-15 07:44:00,70.4,65.0,29.98,South,173,0.0,1.0,83,0.00,,,0.00,Wunderground v.1.15,2013-04-15 11:44:00,
2013-04-15 07:49:00,70.5,65.4,29.98,South,173,0.0,1.0,84,0.00,,,0.00,Wunderground v.1.15,2013-04-15 11:49:00,
2013-04-15 07:54:00,70.6,65.5,29.98,South,173,0.0,0.0,84,0.00,,,0.00,Wunderground v.1.15,2013-04-15 11:54:00,
2013-04-15 08:00:00,70.8,65.7,29.99,South,173,0.0,0.0,84,0.00,,,0.00,Wunderground v.1.15,2013-04-15 12:00:00,
2013-04-15 08:05:00,70.9,65.8,29.99,South,173,0.0,9.0,84,0.00,,,0.00,Wunderground v.1.15,2013-04-15 12:05:00,
2013-04-15 08:11:00,71.0,65.6,29.99,South,173,0.0,0.0,83,0.00,,,0.00,Wunderground v.1.15,2013-04-15 12:11:00,
2013-04-15 08:17:00,71.2,65.4,29.98,South,171,0.0,0.0,82,0.00,,,0.00,Wunderground v.1.15,2013-04-15 12:17:00,
2013-04-15 08:22:00,71.4,66.0,29.99,South,170,0.0,0.0,83,0.00,,,0.00,Wunderground v.1.15,2013-04-15 12:22:00,
2013-04-15 08:28:00,71.5,66.1,29.99,South,169,0.0,0.0,83,0.00,,,0.00,Wunderground v.1.15,2013-04-15 12:28:00,
2013-04-15 08:34:00,71.6,65.8,29.99,South,169,0.0,1.0,82,0.00,,,0.00,Wunderground v.1.15,2013-04-15 12:34:00,
2013-04-15 08:39:00,71.9,65.8,29.98,South,174,1.0,4.0,81,0.00,,,0.00,Wunderground v.1.15,2013-04-15 12:39:00,
2013-04-15 08:44:00,72.1,65.9,29.99,South,190,1.0,1.0,81,0.00,,,0.00,Wunderground v.1.15,2013-04-15 12:44:00,
2013-04-15 08:50:00,72.5,66.0,29.99,South,173,0.0,2.0,80,0.00,,,0.00,Wunderground v.1.15,2013-04-15 12:50:00,
2013-04-15 08:57:00,72.9,65.6,29.98,South,170,0.0,3.0,78,0.00,,,0.00,Wunderground v.1.15,2013-04-15 12:57:00,
2013-04-15 09:03:00,73.1,65.8,29.97,South,184,1.0,4.0,78,0.00,,,0.00,Wunderground v.1.15,2013-04-15 13:03:00,
2013-04-15 09:08:00,73.5,65.8,29.98,South,180,2.0,4.0,77,0.00,,,0.00,Wunderground v.1.15,2013-04-15 13:08:00,
2013-04-15 09:14:00,73.6,65.6,29.99,SSW,200,1.0,2.0,76,0.00,,,0.00,Wunderground v.1.15,2013-04-15 13:14:00,
2013-04-15 09:20:00,73.9,66.2,29.99,SSW,200,0.0,0.0,77,0.00,,,0.00,Wunderground v.1.15,2013-04-15 13:20:00,
2013-04-15 09:25:00,74.2,66.1,29.99,SSW,192,1.0,4.0,76,0.00,,,0.00,Wunderground v.1.15,2013-04-15 13:25:00,
2013-04-15 09:30:00,74.4,66.3,29.99,SSW,192,1.0,1.0,76,0.00,,,0.00,Wunderground v.1.15,2013-04-15 13:30:00,
2013-04-15 09:36:00,74.6,65.8,29.99,South,188,0.0,5.0,74,0.00,,,0.00,Wunderground v.1.15,2013-04-15 13:36:00,
2013-04-15 09:42:00,74.5,65.7,29.99,SSE,155,1.0,1.0,74,0.00,,,0.00,Wunderground v.1.15,2013-04-15 13:42:00,
2013-04-15 09:48:00,74.5,65.7,30.00,SSE,156,0.0,1.0,74,0.00,,,0.00,Wunderground v.1.15,2013-04-15 13:48:00,
2013-04-15 09:53:00,74.6,65.4,30.00,SSW,213,0.0,0.0,73,0.00,,,0.00,Wunderground v.1.15,2013-04-15 13:53:00,
2013-04-15 09:59:00,74.8,65.2,30.00,SSW,213,0.0,0.0,72,0.00,,,0.00,Wunderground v.1.15,2013-04-15 13:59:00,
2013-04-15 10:05:00,74.9,65.3,30.00,SSW,202,0.0,9.0,72,0.00,,,0.00,Wunderground v.1.15,2013-04-15 14:05:00,
2013-04-15 10:11:00,75.2,65.9,30.00,SSW,202,0.0,0.0,73,0.00,,,0.00,Wunderground v.1.15,2013-04-15 14:11:00,
2013-04-15 10:16:00,75.8,66.1,30.00,SSW,202,0.0,0.0,72,0.00,,,0.00,Wunderground v.1.15,2013-04-15 14:16:00,
2013-04-15 10:23:00,76.8,66.3,30.00,SSW,202,0.0,0.0,70,0.00,,,0.00,Wunderground v.1.15,2013-04-15 14:23:00,
2013-04-15 10:28:00,77.5,66.5,30.00,SSW,202,0.0,0.0,69,0.00,,,0.00,Wunderground v.1.15,2013-04-15 14:28:00,
2013-04-15 10:33:00,78.4,67.0,30.00,SSW,199,0.0,0.0,68,0.00,,,0.00,Wunderground v.1.15,2013-04-15 14:33:00,
2013-04-15 10:39:00,79.2,66.9,30.01,SSW,199,0.0,0.0,66,0.00,,,0.00,Wunderground v.1.15,2013-04-15 14:39:00,
2013-04-15 10:44:00,79.7,66.4,30.01,SSW,193,0.0,5.0,64,0.00,,,0.00,Wunderground v.1.15,2013-04-15 14:44:00,
2013-04-15 10:50:00,79.5,65.8,30.01,South,178,1.0,5.0,63,0.00,,,0.00,Wunderground v.1.15,2013-04-15 14:50:00,
2013-04-15 10:55:00,79.1,65.4,30.01,South,180,1.0,2.0,63,0.00,,,0.00,Wunderground v.1.15,2013-04-15 14:55:00,
2013-04-15 11:02:00,79.2,66.0,30.01,South,175,0.0,1.0,64,0.00,,,0.00,Wunderground v.1.15,2013-04-15 15:02:00,
2013-04-15 11:07:00,79.6,66.3,30.02,South,175,0.0,1.0,64,0.00,,,0.00,Wunderground v.1.15,2013-04-15 15:07:00,
2013-04-15 11:12:00,80.0,65.8,30.02,SSE,167,0.0,0.0,62,0.00,,,0.00,Wunderground v.1.15,2013-04-15 15:12:00,
2013-04-15 11:18:00,80.6,65.9,30.02,SSE,162,0.0,0.0,61,0.00,,,0.00,Wunderground v.1.15,2013-04-15 15:18:00,
2013-04-15 11:23:00,81.3,66.1,30.02,SSE,162,0.0,0.0,60,0.00,,,0.00,Wunderground v.1.15,2013-04-15 15:23:00,
2013-04-15 11:29:00,82.1,65.9,30.02,SSE,157,0.0,0.0,58,0.00,,,0.00,Wunderground v.1.15,2013-04-15 15:29:00,
2013-04-15 11:35:00,82.2,65.4,30.02,SSE,154,0.0,0.0,57,0.00,,,0.00,Wunderground v.1.15,2013-04-15 15:35:00,
2013-04-15 11:40:00,82.1,64.8,30.03,SSE,154,0.0,0.0,56,0.00,,,0.00,Wunderground v.1.15,2013-04-15 15:40:00,
2013-04-15 11:47:00,82.5,65.2,30.03,SSE,150,0.0,0.0,56,0.00,,,0.00,Wunderground v.1.15,2013-04-15 15:47:00,
2013-04-15 11:54:00,82.9,65.6,30.03,SSE,150,0.0,0.0,56,0.00,,,0.00,Wunderground v.1.15,2013-04-15 15:54:00,
2013-04-15 11:59:00,83.5,66.7,30.03,SSE,150,0.0,0.0,57,0.00,,,0.00,Wunderground v.1.15,2013-04-15 15:59:00,
2013-04-15 12:04:00,84.3,66.9,30.03,SSE,151,0.0,6.0,56,0.00,,,0.00,Wunderground v.1.15,2013-04-15 16:04:00,
2013-04-15 12:10:00,84.7,65.7,30.03,SSE,153,0.0,1.0,53,0.00,,,0.00,Wunderground v.1.15,2013-04-15 16:10:00,
2013-04-15 12:16:00,84.9,66.4,30.03,SE,141,0.0,1.0,54,0.00,,,0.00,Wunderground v.1.15,2013-04-15 16:16:00,
2013-04-15 12:23:00,85.4,65.8,30.03,SSE,147,0.0,0.0,52,0.00,,,0.00,Wunderground v.1.15,2013-04-15 16:23:00,
2013-04-15 12:29:00,85.6,66.0,30.03,SE,138,0.0,0.0,52,0.00,,,0.00,Wunderground v.1.15,2013-04-15 16:29:00,
2013-04-15 12:34:00,85.6,65.4,30.03,SE,131,0.0,0.0,51,0.00,,,0.00,Wunderground v.1.15,2013-04-15 16:34:00,
2013-04-15 12:40:00,85.5,65.9,30.03,SE,130,0.0,0.0,52,0.00,,,0.00,Wunderground v.1.15,2013-04-15 16:40:00,
2013-04-15 12:46:00,85.8,66.1,30.03,SE,130,0.0,0.0,52,0.00,,,0.00,Wunderground v.1.15,2013-04-15 16:46:00,
2013-04-15 12:52:00,86.0,66.3,30.02,NNE,30,0.0,1.0,52,0.00,,,0.00,Wunderground v.1.15,2013-04-15 16:52:00,
2013-04-15 12:58:00,86.3,66.6,30.02,North,350,0.0,1.0,52,0.00,,,0.00,Wunderground v.1.15,2013-04-15 16:58:00,
2013-04-15 13:04:00,86.4,66.7,30.02,North,350,0.0,0.0,52,0.00,,,0.00,Wunderground v.1.15,2013-04-15 17:04:00,
2013-04-15 13:09:00,86.2,66.5,30.02,North,360,0.0,0.0,52,0.00,,,0.00,Wunderground v.1.15,2013-04-15 17:09:00,
2013-04-15 13:15:00,86.3,67.2,30.02,North,5,0.0,4.0,53,0.00,,,0.00,Wunderground v.1.15,2013-04-15 17:15:00,
2013-04-15 13:21:00,85.3,66.8,30.02,NW,308,1.0,1.0,54,0.00,,,0.00,Wunderground v.1.15,2013-04-15 17:21:00,
2013-04-15 13:22:00,85.1,66.6,30.02,NW,304,1.0,1.0,54,0.00,,,0.00,Wunderground v.1.15,2013-04-15 17:22:00,
2013-04-15 13:24:00,84.9,66.9,30.01,WNW,297,1.0,4.0,55,0.00,,,0.00,Wunderground v.1.15,2013-04-15 17:24:00,
2013-04-15 13:25:00,84.7,66.2,30.02,WNW,299,1.0,4.0,54,0.00,,,0.00,Wunderground v.1.15,2013-04-15 17:25:00,
2013-04-15 13:32:00,85.1,66.6,30.02,ESE,115,0.0,1.0,54,0.00,,,0.00,Wunderground v.1.15,2013-04-15 17:32:00,
2013-04-15 13:34:00,85.6,67.6,30.02,ESE,114,0.0,1.0,55,0.00,,,0.00,Wunderground v.1.15,2013-04-15 17:34:00,
2013-04-15 13:39:00,86.3,67.2,30.02,NNW,342,0.0,1.0,53,0.00,,,0.00,Wunderground v.1.15,2013-04-15 17:39:00,
2013-04-15 13:45:00,87.2,68.0,30.01,North,360,0.0,0.0,53,0.00,,,0.00,Wunderground v.1.15,2013-04-15 17:45:00,
2013-04-15 13:50:00,87.6,67.8,30.01,NNW,337,0.0,0.0,52,0.00,,,0.00,Wunderground v.1.15,2013-04-15 17:50:00,
2013-04-15 13:57:00,87.7,67.3,30.01,NNW,337,0.0,0.0,51,0.00,,,0.00,Wunderground v.1.15,2013-04-15 17:57:00,
2013-04-15 14:03:00,88.0,68.2,30.01,NNW,334,0.0,4.0,52,0.00,,,0.00,Wunderground v.1.15,2013-04-15 18:03:00,
2013-04-15 14:09:00,87.7,67.9,30.01,NW,326,0.0,4.0,52,0.00,,,0.00,Wunderground v.1.15,2013-04-15 18:09:00,
2013-04-15 14:15:00,87.7,67.3,30.01,NNW,327,0.0,0.0,51,0.00,,,0.00,Wunderground v.1.15,2013-04-15 18:15:00,
2013-04-15 14:20:00,88.3,68.4,30.01,NNW,338,0.0,0.0,52,0.00,,,0.00,Wunderground v.1.15,2013-04-15 18:20:00,
2013-04-15 14:25:00,88.3,67.9,30.01,ENE,78,0.0,0.0,51,0.00,,,0.00,Wunderground v.1.15,2013-04-15 18:25:00,
2013-04-15 14:29:00,88.7,67.7,30.01,ENE,77,0.0,0.0,50,0.00,,,0.00,Wunderground v.1.15,2013-04-15 18:29:00,
2013-04-15 14:30:00,88.7,67.7,30.00,ENE,63,0.0,0.0,50,0.00,,,0.00,Wunderground v.1.15,2013-04-15 18:30:00,
2013-04-15 14:31:00,88.8,67.8,30.00,NNW,346,0.0,0.0,50,0.00,,,0.00,Wunderground v.1.15,2013-04-15 18:31:00,
2013-04-15 14:34:00,88.8,67.8,30.00,NNW,348,0.0,1.0,50,0.00,,,0.00,Wunderground v.1.15,2013-04-15 18:34:00,
2013-04-15 14:39:00,89.3,68.8,30.00,ENE,71,0.0,2.0,51,0.00,,,0.00,Wunderground v.1.15,2013-04-15 18:39:00,
2013-04-15 14:44:00,90.0,68.9,30.00,ESE,109,0.0,0.0,50,0.00,,,0.00,Wunderground v.1.15,2013-04-15 18:44:00,
2013-04-15 14:50:00,90.8,69.0,30.00,SSE,164,0.0,0.0,49,0.00,,,0.00,Wunderground v.1.15,2013-04-15 18:50:00,
2013-04-15 14:56:00,91.1,68.1,30.00,ESE,103,0.0,0.0,47,0.00,,,0.00,Wunderground v.1.15,2013-04-15 18:56:00,
2013-04-15 15:01:00,91.3,68.9,29.99,SE,140,0.0,3.0,48,0.00,,,0.00,Wunderground v.1.15,2013-04-15 19:01:00,
2013-04-15 15:07:00,91.5,68.4,29.99,South,186,0.0,3.0,47,0.00,,,0.00,Wunderground v.1.15,2013-04-15 19:07:00,
2013-04-15 15:13:00,91.9,69.4,29.99,NW,313,0.0,0.0,48,0.00,,,0.00,Wunderground v.1.15,2013-04-15 19:13:00,
2013-04-15 15:19:00,91.9,68.2,29.99,WNW,298,0.0,2.0,46,0.00,,,0.00,Wunderground v.1.15,2013-04-15 19:19:00,
2013-04-15 15:24:00,91.3,68.2,29.99,WNW,299,0.0,1.0,47,0.00,,,0.00,Wunderground v.1.15,2013-04-15 19:24:00,
2013-04-15 15:29:00,90.5,68.1,29.99,NW,306,0.0,2.0,48,0.00,,,0.00,Wunderground v.1.15,2013-04-15 19:29:00,
2013-04-15 15:35:00,90.1,68.4,29.98,NW,306,0.0,0.0,49,0.00,,,0.00,Wunderground v.1.15,2013-04-15 19:35:00,
2013-04-15 15:40:00,90.0,68.9,29.98,NW,306,0.0,2.0,50,0.00,,,0.00,Wunderground v.1.15,2013-04-15 19:40:00,
2013-04-15 15:46:00,89.2,70.9,29.98,NW,315,1.0,4.0,55,0.00,,,0.00,Wunderground v.1.15,2013-04-15 19:46:00,
2013-04-15 15:53:00,89.1,71.4,29.98,WNW,300,1.0,3.0,56,0.00,,,0.00,Wunderground v.1.15,2013-04-15 19:53:00,
2013-04-15 15:58:00,89.2,70.4,29.98,WNW,302,0.0,3.0,54,0.00,,,0.00,Wunderground v.1.15,2013-04-15 19:58:00,
2013-04-15 15:59:00,89.1,70.8,29.98,WNW,292,0.0,3.0,55,0.00,,,0.00,Wunderground v.1.15,2013-04-15 19:59:00,
2013-04-15 16:02:00,88.9,71.2,29.98,NW,307,1.0,3.0,56,0.00,,,0.00,Wunderground v.1.15,2013-04-15 20:02:00,
2013-04-15 16:03:00,88.8,71.6,29.98,WNW,303,1.0,3.0,57,0.00,,,0.00,Wunderground v.1.15,2013-04-15 20:03:00,
2013-04-15 16:06:00,88.7,70.5,29.98,North,360,1.0,3.0,55,0.00,,,0.00,Wunderground v.1.15,2013-04-15 20:06:00,
2013-04-15 16:08:00,88.9,70.6,29.98,NNW,333,1.0,3.0,55,0.00,,,0.00,Wunderground v.1.15,2013-04-15 20:08:00,
2013-04-15 16:13:00,89.1,70.3,29.98,NW,313,1.0,1.0,54,0.00,,,0.00,Wunderground v.1.15,2013-04-15 20:13:00,
2013-04-15 16:19:00,89.8,70.9,29.97,NW,314,1.0,1.0,54,0.00,,,0.00,Wunderground v.1.15,2013-04-15 20:19:00,
2013-04-15 16:24:00,90.2,71.3,29.97,NNW,331,1.0,2.0,54,0.00,,,0.00,Wunderground v.1.15,2013-04-15 20:24:00,
2013-04-15 16:28:00,90.2,70.2,29.97,NE,43,0.0,4.0,52,0.00,,,0.00,Wunderground v.1.15,2013-04-15 20:28:00,
2013-04-15 16:33:00,89.7,70.3,29.97,North,355,2.0,5.0,53,0.00,,,0.00,Wunderground v.1.15,2013-04-15 20:33:00,
2013-04-15 16:39:00,89.4,70.0,29.97,NW,317,1.0,5.0,53,0.00,,,0.00,Wunderground v.1.15,2013-04-15 20:39:00,
2013-04-15 16:44:00,89.5,70.7,29.97,NW,308,1.0,2.0,54,0.00,,,0.00,Wunderground v.1.15,2013-04-15 20:44:00,
2013-04-15 16:50:00,88.7,69.9,29.97,NW,304,1.0,3.0,54,0.00,,,0.00,Wunderground v.1.15,2013-04-15 20:50:00,
2013-04-15 16:55:00,88.0,70.3,29.97,WNW,294,1.0,3.0,56,0.00,,,0.00,Wunderground v.1.15,2013-04-15 20:55:00,
2013-04-15 17:02:00,88.1,70.4,29.97,NNW,333,0.0,5.0,56,0.00,,,0.00,Wunderground v.1.15,2013-04-15 21:02:00,
2013-04-15 17:08:00,88.8,70.5,29.97,NNW,338,0.0,5.0,55,0.00,,,0.00,Wunderground v.1.15,2013-04-15 21:08:00,
2013-04-15 17:13:00,89.0,70.7,29.97,NNW,346,0.0,1.0,55,0.00,,,0.00,Wunderground v.1.15,2013-04-15 21:13:00,
2013-04-15 17:19:00,88.7,69.9,29.97,WNW,295,1.0,5.0,54,0.00,,,0.00,Wunderground v.1.15,2013-04-15 21:19:00,
2013-04-15 17:25:00,88.4,69.1,29.98,North,360,1.0,4.0,53,0.00,,,0.00,Wunderground v.1.15,2013-04-15 21:25:00,
2013-04-15 17:30:00,88.3,69.5,29.98,NW,322,1.0,1.0,54,0.00,,,0.00,Wunderground v.1.15,2013-04-15 21:30:00,
2013-04-15 17:36:00,87.9,69.7,29.98,WNW,295,1.0,3.0,55,0.00,,,0.00,Wunderground v.1.15,2013-04-15 21:36:00,
2013-04-15 17:42:00,87.6,69.4,29.98,NNE,14,1.0,6.0,55,0.00,,,0.00,Wunderground v.1.15,2013-04-15 21:42:00,
2013-04-15 17:47:00,87.0,69.4,29.98,NW,307,1.0,6.0,56,0.00,,,0.00,Wunderground v.1.15,2013-04-15 21:47:00,
2013-04-15 17:52:00,86.6,69.6,29.98,North,351,1.0,1.0,57,0.00,,,0.00,Wunderground v.1.15,2013-04-15 21:52:00,
2013-04-15 17:58:00,86.1,69.1,29.98,NW,309,1.0,5.0,57,0.00,,,0.00,Wunderground v.1.15,2013-04-15 21:58:00,
2013-04-15 18:03:00,85.7,68.7,29.98,NW,315,1.0,6.0,57,0.00,,,0.00,Wunderground v.1.15,2013-04-15 22:03:00,
2013-04-15 18:09:00,85.5,69.0,29.98,NW,316,0.0,6.0,58,0.00,,,0.00,Wunderground v.1.15,2013-04-15 22:09:00,
2013-04-15 18:15:00,85.4,68.9,29.99,NNW,333,0.0,4.0,58,0.00,,,0.00,Wunderground v.1.15,2013-04-15 22:15:00,
2013-04-15 18:20:00,85.3,69.3,29.99,NW,317,0.0,0.0,59,0.00,,,0.00,Wunderground v.1.15,2013-04-15 22:20:00,
2013-04-15 18:26:00,85.1,68.7,29.99,NNW,342,0.0,0.0,58,0.00,,,0.00,Wunderground v.1.15,2013-04-15 22:26:00,
2013-04-15 18:32:00,84.9,69.0,29.99,NW,310,0.0,0.0,59,0.00,,,0.00,Wunderground v.1.15,2013-04-15 22:32:00,
2013-04-15 18:38:00,85.0,69.1,29.99,NW,320,0.0,2.0,59,0.00,,,0.00,Wunderground v.1.15,2013-04-15 22:38:00,
2013-04-15 18:44:00,84.7,68.8,29.99,WNW,302,0.0,1.0,59,0.00,,,0.00,Wunderground v.1.15,2013-04-15 22:44:00,
2013-04-15 18:49:00,84.3,68.9,30.00,WNW,303,0.0,1.0,60,0.00,,,0.00,Wunderground v.1.15,2013-04-15 22:49:00,
2013-04-15 18:55:00,83.9,69.0,30.00,NW,306,0.0,0.0,61,0.00,,,0.00,Wunderground v.1.15,2013-04-15 22:55:00,
2013-04-15 19:00:00,83.9,68.5,30.00,WNW,298,0.0,4.0,60,0.00,,,0.00,Wunderground v.1.15,2013-04-15 23:00:00,
2013-04-15 19:05:00,83.4,68.5,30.00,NW,304,1.0,7.0,61,0.00,,,0.00,Wunderground v.1.15,2013-04-15 23:05:00,
2013-04-15 19:11:00,83.0,68.6,30.00,NW,306,0.0,4.0,62,0.00,,,0.00,Wunderground v.1.15,2013-04-15 23:11:00,
2013-04-15 19:16:00,82.7,68.8,30.00,NW,306,0.0,4.0,63,0.00,,,0.00,Wunderground v.1.15,2013-04-15 23:16:00,
2013-04-15 19:22:00,82.6,68.7,30.01,NW,309,0.0,0.0,63,0.00,,,0.00,Wunderground v.1.15,2013-04-15 23:22:00,
2013-04-15 19:28:00,82.5,68.6,30.00,NW,309,0.0,0.0,63,0.00,,,0.00,Wunderground v.1.15,2013-04-15 23:28:00,
2013-04-15 19:33:00,82.1,68.7,30.01,NW,306,0.0,3.0,64,0.00,,,0.00,Wunderground v.1.15,2013-04-15 23:33:00,
2013-04-15 19:39:00,81.9,68.5,30.01,NW,306,0.0,3.0,64,0.00,,,0.00,Wunderground v.1.15,2013-04-15 23:39:00,
2013-04-15 19:44:00,81.7,68.8,30.01,NW,306,0.0,0.0,65,0.00,,,0.00,Wunderground v.1.15,2013-04-15 23:44:00,
2013-04-15 19:50:00,81.5,68.6,30.01,NW,306,0.0,0.0,65,0.00,,,0.00,Wunderground v.1.15,2013-04-15 23:50:00,
2013-04-15 19:56:00,81.2,68.8,30.01,NW,307,0.0,3.0,66,0.00,,,0.00,Wunderground v.1.15,2013-04-15 23:56:00,
2013-04-15 20:02:00,81.0,68.6,30.02,NW,307,0.0,6.0,66,0.00,,,0.00,Wunderground v.1.15,2013-04-16 00:02:00,
2013-04-15 20:08:00,80.7,68.7,30.02,NW,307,0.0,6.0,67,0.00,,,0.00,Wunderground v.1.15,2013-04-16 00:08:00,
2013-04-15 20:14:00,80.5,68.5,30.02,NW,307,0.0,0.0,67,0.00,,,0.00,Wunderground v.1.15,2013-04-16 00:14:00,
2013-04-15 20:19:00,80.1,68.2,30.02,NW,309,0.0,0.0,67,0.00,,,0.00,Wunderground v.1.15,2013-04-16 00:19:00,
2013-04-15 20:25:00,79.8,68.3,30.03,NW,309,0.0,3.0,68,0.00,,,0.00,Wunderground v.1.15,2013-04-16 00:25:00,
2013-04-15 20:30:00,79.6,68.1,30.03,NW,309,0.0,0.0,68,0.00,,,0.00,Wunderground v.1.15,2013-04-16 00:30:00,
2013-04-15 20:36:00,79.3,67.8,30.04,NW,309,0.0,0.0,68,0.00,,,0.00,Wunderground v.1.15,2013-04-16 00:36:00,
2013-04-15 20:42:00,79.0,67.5,30.04,NW,309,0.0,0.0,68,0.00,,,0.00,Wunderground v.1.15,2013-04-16 00:42:00,
2013-04-15 20:47:00,78.7,67.7,30.04,NW,309,0.0,1.0,69,0.00,,,0.00,Wunderground v.1.15,2013-04-16 00:47:00,
2013-04-15 20:53:00,78.6,67.6,30.05,NW,309,0.0,0.0,69,0.00,,,0.00,Wunderground v.1.15,2013-04-16 00:53:00,
2013-04-15 20:58:00,78.4,67.4,30.05,NW,309,0.0,0.0,69,0.00,,,0.00,Wunderground v.1.15,2013-04-16 00:58:00,
2013-04-15 21:04:00,78.2,67.2,30.05,NW,309,0.0,5.0,69,0.00,,,0.00,Wunderground v.1.15,2013-04-16 01:04:00,
2013-04-15 21:10:00,78.0,67.0,30.05,NW,309,0.0,0.0,69,0.00,,,0.00,Wunderground v.1.15,2013-04-16 01:10:00,
2013-04-15 21:16:00,77.8,67.2,30.06,NW,309,0.0,0.0,70,0.00,,,0.00,Wunderground v.1.15,2013-04-16 01:16:00,
2013-04-15 21:22:00,77.8,67.2,30.06,NW,309,0.0,0.0,70,0.00,,,0.00,Wunderground v.1.15,2013-04-16 01:22:00,
2013-04-15 21:27:00,77.7,66.7,30.06,NW,309,0.0,0.0,69,0.00,,,0.00,Wunderground v.1.15,2013-04-16 01:27:00,
2013-04-15 21:32:00,77.6,67.0,30.06,NW,309,0.0,0.0,70,0.00,,,0.00,Wunderground v.1.15,2013-04-16 01:32:00,
2013-04-15 21:38:00,77.4,66.8,30.06,NW,309,0.0,0.0,70,0.00,,,0.00,Wunderground v.1.15,2013-04-16 01:38:00,
2013-04-15 21:43:00,77.2,66.7,30.06,NW,309,0.0,0.0,70,0.00,,,0.00,Wunderground v.1.15,2013-04-16 01:43:00,
2013-04-15 21:49:00,77.0,66.9,30.06,NW,309,0.0,0.0,71,0.00,,,0.00,Wunderground v.1.15,2013-04-16 01:49:00,
2013-04-15 21:54:00,76.9,66.8,30.06,NW,309,0.0,0.0,71,0.00,,,0.00,Wunderground v.1.15,2013-04-16 01:54:00,
2013-04-15 21:59:00,76.7,66.6,30.07,NW,309,0.0,0.0,71,0.00,,,0.00,Wunderground v.1.15,2013-04-16 01:59:00,
2013-04-15 22:05:00,76.5,66.4,30.07,NW,309,0.0,0.0,71,0.00,,,0.00,Wunderground v.1.15,2013-04-16 02:05:00,
2013-04-15 22:11:00,76.4,66.7,30.07,NW,309,0.0,0.0,72,0.00,,,0.00,Wunderground v.1.15,2013-04-16 02:11:00,
2013-04-15 22:17:00,76.2,66.5,30.07,NW,309,0.0,0.0,72,0.00,,,0.00,Wunderground v.1.15,2013-04-16 02:17:00,
2013-04-15 22:22:00,76.1,66.4,30.07,NW,309,0.0,0.0,72,0.00,,,0.00,Wunderground v.1.15,2013-04-16 02:22:00,
2013-04-15 22:27:00,76.0,66.3,30.07,NW,309,0.0,0.0,72,0.00,,,0.00,Wunderground v.1.15,2013-04-16 02:27:00,
2013-04-15 22:33:00,76.0,66.3,30.08,NW,309,0.0,0.0,72,0.00,,,0.00,Wunderground v.1.15,2013-04-16 02:33:00,
2013-04-15 22:38:00,75.9,66.6,30.08,NW,309,0.0,0.0,73,0.00,,,0.00,Wunderground v.1.15,2013-04-16 02:38:00,
2013-04-15 22:43:00,75.8,66.5,30.08,NW,309,0.0,0.0,73,0.00,,,0.00,Wunderground v.1.15,2013-04-16 02:43:00,
2013-04-15 22:49:00,75.6,66.7,30.08,NW,309,0.0,0.0,74,0.00,,,0.00,Wunderground v.1.15,2013-04-16 02:49:00,
2013-04-15 22:54:00,75.4,66.5,30.08,NW,309,0.0,0.0,74,0.00,,,0.00,Wunderground v.1.15,2013-04-16 02:54:00,
2013-04-15 22:59:00,75.1,66.6,30.09,NW,309,0.0,0.0,75,0.00,,,0.00,Wunderground v.1.15,2013-04-16 02:59:00,
2013-04-15 23:05:00,74.9,66.4,30.09,NW,309,0.0,1.0,75,0.00,,,0.00,Wunderground v.1.15,2013-04-16 03:05:00,
2013-04-15 23:11:00,74.8,66.7,30.08,NW,309,0.0,0.0,76,0.00,,,0.00,Wunderground v.1.15,2013-04-16 03:11:00,
2013-04-15 23:17:00,74.8,66.7,30.09,NW,309,0.0,0.0,76,0.00,,,0.00,Wunderground v.1.15,2013-04-16 03:17:00,
2013-04-15 23:22:00,74.7,66.6,30.09,NW,309,0.0,0.0,76,0.00,,,0.00,Wunderground v.1.15,2013-04-16 03:22:00,
2013-04-15 23:28:00,74.6,66.5,30.09,NW,309,0.0,0.0,76,0.00,,,0.00,Wunderground v.1.15,2013-04-16 03:28:00,
2013-04-15 23:33:00,74.5,66.8,30.09,NW,309,0.0,0.0,77,0.00,,,0.00,Wunderground v.1.15,2013-04-16 03:33:00,
2013-04-15 23:38:00,74.4,66.7,30.09,NW,309,0.0,0.0,77,0.00,,,0.00,Wunderground v.1.15,2013-04-16 03:38:00,
2013-04-15 23:44:00,74.2,66.5,30.09,NW,309,0.0,0.0,77,0.00,,,0.00,Wunderground v.1.15,2013-04-16 03:44:00,
2013-04-15 23:50:00,74.0,66.7,30.09,NW,309,0.0,0.0,78,0.00,,,0.00,Wunderground v.1.15,2013-04-16 03:50:00,
2013-04-15 23:55:00,73.9,67.0,30.09,NW,309,0.0,0.0,79,0.00,,,0.00,Wunderground v.1.15,2013-04-16 03:55:00,